This is the latest recevied weather packets stored in our database for station/object KM4NDN. If no packets are shown the sender has not sent any weather packets the latest 10 day(s).
| Time | Temp. | Humidity | Pressure | Rain* | Wind** | Luminosity | Snow |
|---|---|---|---|---|---|---|---|
| 1778024258 | 10° C | 95% | 1006.4 hPa | 3.05 mm | - | 10 W/m² | - |
| 1778023956 | 10° C | 95% | 1006.5 hPa | 1.78 mm | - | 11 W/m² | - |
| 1778023653 | 10° C | 95% | 1006.6 hPa | 1.27 mm | - | 12 W/m² | - |
| 1778023350 | 10° C | 95% | 1006.5 hPa | 1.27 mm | - | 10 W/m² | - |
| 1778023047 | 10° C | 95% | 1006.6 hPa | 1.78 mm | - | 12 W/m² | - |
| 1778022746 | 10° C | 95% | 1006.7 hPa | 3.56 mm | - | 6 W/m² | - |
| 1778022443 | 10° C | 95% | 1006.5 hPa | 1.78 mm | - | 12 W/m² | - |
| 1778022140 | 10° C | 95% | 1006.6 hPa | 0 mm | - | 14 W/m² | - |
| 1778021836 | 10° C | 94% | 1006.5 hPa | 0 mm | - | 21 W/m² | - |
| 1778021533 | 10.56° C | 94% | 1006.3 hPa | 1.27 mm | - | 23 W/m² | - |
| 1778021228 | 10.56° C | 94% | 1006.9 hPa | 1.27 mm | - | 22 W/m² | - |
| 1778020927 | 10.56° C | 95% | 1006.7 hPa | 0 mm | - | 27 W/m² | - |
| 1778020624 | 10.56° C | 95% | 1006.6 hPa | 0 mm | - | 61 W/m² | - |
| 1778020320 | 10.56° C | 95% | 1006.9 hPa | 0 mm | - | 80 W/m² | - |
| 1778020016 | 10.56° C | 95% | 1006.9 hPa | 1.78 mm | - | 48 W/m² | - |
| 1778019712 | 10.56° C | 95% | 1006.8 hPa | 4.83 mm | - | 56 W/m² | - |
| 1778019410 | 10° C | 94% | 1006.9 hPa | 3.05 mm | - | 26 W/m² | - |
| 1778019106 | 10° C | 94% | 1007.4 hPa | 3.05 mm | - | 8 W/m² | - |
| 1778018803 | 10° C | 94% | 1007 hPa | 6.1 mm | - | 18 W/m² | - |
| 1778018501 | 10° C | 94% | 1006.8 hPa | 6.1 mm | - | 21 W/m² | - |
| 1778018198 | 10° C | 94% | 1006.8 hPa | 6.1 mm | - | 17 W/m² | - |
| 1778017896 | 10.56° C | 94% | 1006.7 hPa | 7.87 mm | - | 43 W/m² | - |
| 1778017594 | 10.56° C | 94% | 1006.5 hPa | 6.1 mm | - | 41 W/m² | - |
| 1778017291 | 10° C | 94% | 1006.7 hPa | 7.11 mm | - | 17 W/m² | - |
| 1778016989 | 10° C | 93% | 1006.2 hPa | 10.16 mm | - | 27 W/m² | - |
* Rain latest hour (hover to see other rain measurements)
** Current wind speed in m/s (hover to see current wind gust speed)